Wind_Speed
16 12 14 18 15 9 8 17 21 17 19 19 17 14 14 12 5 3 6 11 10 10 8 5 8 9 10 12 16 21 23 25 30 36 39 37 36 35 33 30 28 29 28 26 26 26 28 27 25 24 20 17 16 16 17 16 15 15 15 15 15 15 15
14 11 11 15 17 13 9 9 16 15 17 20 17 9 8 8 3 4 12 19 17 12 9 11 12 11 11 11 13 17 20 24 26 30 35 37 37 34 32 31 31 30 28 27 26 26 27 27 26 25 21 19 17 16 17 17 15 15 15 15 15 15 15
5 9 9 9 12 16 16 9 8 10 10 15 16 7 4 4 2 2 6 15 13 7 9 16 17 17 16 12 12 15 17 21 22 25 29 33 36 36 35 35 33 31 30 28 28 27 26 26 25 25 23 21 18 17 18 17 16 15 15 15 16 15 15
10 3 10 6 7 10 15 13 7 9 9 12 17 15 10 6 2 1 3 4 3 3 7 16 19 19 17 13 14 15 15 16 17 21 26 29 34 37 37 36 35 33 32 31 30 29 27 26 26 26 25 23 21 18 18 18 17 17 17 17 16 16 16
7 6 4 7 9 9 12 13 12 11 11 11 13 16 18 12 5 2 3 1 1 3 8 16 19 17 15 13 12 13 13 13 14 18 22 26 31 35 36 36 35 34 33 32 33 32 29 27 27 27 26 24 22 19 19 19 18 18 18 17 17 17 17
13 17 12 5 7 11 13 11 15 16 14 12 9 9 15 17 12 8 3 4 4 7 10 16 19 17 15 13 10 10 11 12 15 17 18 22 26 32 35 36 37 37 36 36 35 34 31 29 28 28 27 26 23 20 20 20 19 18 18 17 17 17 17
18 18 10 6 8 12 12 11 15 19 17 16 9 6 10 15 18 18 9 6 6 9 9 13 18 18 16 14 12 12 12 13 16 17 17 21 23 28 33 37 40 41 40 40 39 36 34 31 28 28 28 27 24 20 20 21 20 19 19 18 17 17 18
17 15 12 9 8 9 11 14 13 18 19 17 11 9 10 8 7 11 7 4 5 9 7 9 14 15 14 15 14 14 14 17 20 19 19 21 21 24 27 31 38 42 40 40 40 37 34 32 29 29 29 27 23 20 20 21 21 20 19 18 17 18 19
12 11 10 9 7 6 7 13 12 11 12 14 15 16 14 8 9 7 5 4 5 8 8 9 12 13 15 16 14 15 16 19 22 22 19 18 18 20 22 25 31 37 40 42 41 38 35 33 31 30 29 27 24 21 21 21 20 20 20 19 18 19 20
5 5 8 11 13 11 9 14 18 9 7 16 14 7 4 9 14 15 11 8 8 7 6 8 9 11 15 15 13 15 16 19 22 20 17 17 18 20 21 23 25 29 36 42 42 40 38 36 33 30 28 27 25 24 22 22 21 21 20 19 19 20 20
5 8 13 13 14 15 17 20 21 14 11 17 16 12 10 10 13 16 15 11 9 7 4 5 7 8 11 11 11 13 15 17 19 17 16 18 20 21 19 19 20 22 28 37 42 43 40 36 33 31 30 28 27 26 24 23 23 22 21 20 20 20 20
10 11 13 12 12 14 16 17 16 15 12 12 16 19 15 12 13 13 12 9 8 6 3 2 4 7 7 7 7 10 13 14 14 15 17 19 20 20 19 17 18 19 23 32 41 43 41 38 36 34 33 31 29 28 27 26 25 24 22 22 22 21 21
14 10 9 13 16 14 12 13 15 16 13 11 14 15 14 16 18 13 10 12 15 9 2 1 3 7 7 6 8 10 10 11 13 15 16 18 19 19 16 15 16 17 20 29 39 43 43 41 38 36 35 33 30 29 28 27 26 25 24 23 23 23 22
15 10 9 11 14 14 12 12 13 16 16 14 12 9 9 10 13 13 9 12 17 12 4 2 3 6 6 8 10 10 10 11 14 16 17 18 18 17 15 15 16 17 19 25 35 43 44 42 39 38 37 34 31 29 28 26 25 25 25 25 25 24 24
12 10 11 8 8 9 10 9 10 14 16 14 11 11 10 8 8 9 8 9 12 9 4 5 3 5 6 7 8 9 10 11 11 13 16 18 17 17 16 16 16 18 19 22 28 36 41 39 37 36 35 34 32 31 29 27 26 27 27 27 27 26 26
10 9 10 8 8 7 4 7 10 9 14 14 11 13 14 12 11 8 5 7 7 5 1 4 4 3 2 4 5 6 8 8 7 8 13 16 17 18 18 16 16 17 18 18 22 27 33 34 33 32 31 31 32 31 28 27 27 28 28 29 29 30 31
10 9 8 8 7 6 3 3 6 7 9 12 7 8 12 12 11 9 9 11 8 0 4 2 1 1 3 4 5 7 8 8 7 8 12 16 15 16 17 17 17 15 13 16 21 25 30 32 32 31 30 32 33 30 28 27 28 28 30 30 30 31 33
9 9 9 8 2 3 6 7 4 6 7 8 5 6 10 10 10 11 12 11 8 5 5 5 5 5 6 6 5 9 11 11 8 7 11 15 14 13 14 15 14 11 11 16 20 22 25 28 29 29 30 31 33 31 29 28 29 29 30 30 30 30 32
8 9 9 7 3 6 9 9 8 5 3 4 5 5 7 8 9 10 11 10 8 7 8 7 6 7 8 8 7 7 10 11 9 7 9 12 12 10 11 12 11 10 8 10 12 12 15 19 23 25 25 26 28 28 27 28 29 29 29 30 31 32 32
5 5 4 3 2 6 8 8 9 10 7 5 6 7 7 8 7 7 8 10 9 9 10 9 7 8 8 9 9 7 4 6 7 6 6 8 9 8 8 10 12 12 10 8 9 11 13 15 17 19 19 21 22 23 24 26 27 25 24 26 31 34 36
2 3 2 1 1 4 5 6 9 11 10 7 7 7 5 5 5 5 5 6 8 9 9 7 5 6 8 9 10 9 6 3 4 6 7 7 7 6 6 8 11 14 16 15 15 16 16 16 16 16 16 16 18 19 21 22 21 21 22 24 28 32 35
3 3 1 2 2 3 3 5 7 6 6 4 4 4 1 3 2 6 6 5 6 8 8 8 6 5 7 8 8 9 7 5 6 8 8 8 7 8 8 8 8 12 17 20 20 20 20 20 20 20 18 16 16 19 21 23 23 23 23 25 26 27 29
5 6 4 2 3 4 4 4 5 4 4 4 3 0 3 2 4 7 6 5 6 6 7 9 9 8 8 8 9 9 6 5 5 7 6 6 7 8 9 10 10 10 10 11 12 13 15 17 18 21 23 23 22 23 25 27 27 26 25 25 26 25 25
9 8 2 4 5 6 4 2 7 9 8 6 3 1 4 2 5 7 6 5 5 6 8 9 10 8 8 8 9 10 7 6 7 8 6 5 6 7 8 10 11 11 11 10 10 10 12 13 14 16 19 22 23 24 26 26 26 25 25 25 25 24 24
7 5 6 9 6 4 2 1 5 8 6 2 3 5 4 2 4 5 6 6 7 9 10 10 10 9 8 7 7 8 8 8 9 9 8 7 7 8 9 10 12 12 12 12 12 11 12 14 15 15 16 18 20 22 24 25 25 25 26 25 24 24 24
7 5 8 9 4 2 1 2 4 5 1 5 7 5 2 2 5 6 7 8 8 8 9 9 9 8 7 6 5 6 7 8 9 8 8 8 8 8 8 8 9 10 11 11 12 13 13 13 15 17 17 18 20 21 23 24 24 24 25 25 24 23 22
6 6 8 7 3 3 3 3 4 4 6 9 7 3 1 2 5 6 6 7 7 7 6 6 5 5 3 3 3 4 4 4 5 5 6 6 6 6 6 5 5 6 7 9 10 12 13 15 16 18 19 19 20 21 22 22 22 23 23 23 23 22 21
4 5 6 6 2 3 5 4 3 5 7 7 5 3 3 2 5 5 6 7 7 7 6 5 4 4 3 3 3 4 4 3 3 2 2 3 4 5 5 5 5 5 6 7 8 9 12 14 16 18 20 20 19 20 21 21 21 22 22 23 24 23 21
2 2 4 4 1 4 5 3 2 4 3 2 2 3 4 4 4 5 7 7 6 6 5 5 4 3 4 4 3 2 2 3 3 3 3 4 5 6 6 6 7 7 8 9 9 10 11 13 14 16 18 19 19 20 20 21 22 22 23 25 26 26 23
3 4 4 2 0 3 4 2 0 1 3 4 4 5 6 6 5 5 6 6 6 5 4 4 4 3 3 3 3 2 1 2 3 4 5 6 6 7 7 7 7 7 8 9 11 12 12 13 14 16 18 18 19 19 19 20 21 22 24 25 26 25 24
3 7 7 4 5 5 5 4 4 4 5 6 7 7 6 4 4 4 5 6 6 5 4 3 2 2 2 2 1 1 0 0 1 2 3 4 5 5 5 5 5 5 6 7 9 10 11 12 13 14 16 17 17 18 18 18 19 20 21 23 24 24 23
4 7 9 8 9 8 7 7 8 8 8 8 9 9 7 5 3 4 5 6 6 5 4 3 2 2 2 2 2 2 3 3 3 3 2 2 2 2 2 2 2 3 4 5 7 8 9 9 10 11 13 14 15 15 16 16 16 17 18 20 21 22 22
6 8 10 10 10 9 8 8 9 9 8 8 7 8 8 7 5 4 4 6 6 5 5 4 2 2 2 2 3 4 5 5 5 6 5 4 4 3 3 3 3 3 4 5 6 6 7 8 8 10 11 12 13 14 15 16 16 16 17 18 18 19 21
8 9 9 10 11 10 9 9 8 8 8 8 7 8 9 9 7 5 4 4 5 5 5 4 4 3 2 3 4 5 5 5 6 7 7 7 7 6 5 5 5 5 6 7 7 7 7 7 8 9 10 11 11 12 12 13 14 14 14 14 15 16 17
11 10 9 10 11 11 10 10 10 10 10 9 8 8 8 9 9 7 6 5 6 6 6 6 6 5 4 4 5 6 6 6 6 7 8 9 9 9 8 7 7 8 8 9 9 9 9 9 9 10 12 13 13 13 12 12 12 11 10 10 12 13 13
11 11 11 11 11 11 12 11 11 10 10 10 9 8 8 8 9 8 7 8 8 8 7 7 7 6 6 7 6 6 7 7 7 7 9 9 10 10 10 10 10 10 10 10 11 12 13 13 13 14 15 16 16 15 15 14 12 11 10 10 11 12 12
11 11 11 11 11 11 12 12 12 11 11 10 10 8 8 8 9 9 8 8 9 9 7 7 7 7 7 8 8 7 8 9 9 9 10 10 10 11 12 13 13 13 13 14 15 16 16 17 18 18 19 19 18 17 17 16 13 12 10 10 11 12 13
Wind_Direction
225 232 219 223 239 262 255 202 191 213 228 239 265 282 295 297 290 236 152 129 140 149 141 166 179 183 183 175 180 185 190 197 203 209 211 209 207 208 212 214 210 209 213 216 216 215 215 215 217 221 222 219 213 209 210 211 209 210 212 212 212 210 212
214 224 242 232 228 240 268 204 188 218 232 240 262 298 322 313 305 203 166 149 150 148 148 172 179 191 195 181 179 188 195 199 203 207 209 210 209 209 212 215 214 211 212 216 218 219 217 214 217 222 223 222 216 211 213 214 214 213 212 214 214 212 213
250 240 225 222 230 236 262 270 196 208 227 236 244 257 304 281 287 329 131 140 147 146 166 182 185 191 196 189 187 192 196 200 205 206 206 207 208 209 212 213 212 210 210 213 217 220 220 216 217 220 222 222 217 209 212 214 214 214 214 215 216 214 215
341 259 195 227 286 258 262 273 242 232 242 229 223 224 238 250 244 354 54 76 82 98 176 189 189 193 198 199 199 200 198 197 204 207 205 205 206 208 211 212 210 208 208 213 217 220 222 219 218 219 220 222 219 212 212 215 214 212 213 214 215 216 216
326 348 336 312 317 303 280 264 246 254 252 224 213 218 229 242 256 178 129 89 179 155 179 186 187 195 209 215 210 205 204 203 205 207 206 206 205 207 210 212 210 208 208 212 216 219 223 221 219 219 220 222 221 215 211 215 217 214 213 214 214 216 216
302 321 323 299 293 296 294 272 247 252 256 238 216 206 217 227 247 252 182 130 176 184 176 179 184 194 208 218 223 223 224 219 211 207 207 208 207 208 211 211 211 209 207 209 213 216 219 221 218 217 217 219 221 216 210 213 218 217 217 216 216 216 218
305 308 283 268 294 279 284 291 258 247 256 256 235 198 208 217 233 244 226 128 157 187 172 171 183 194 205 212 221 231 236 229 221 218 214 210 208 210 211 211 212 211 208 209 212 210 211 217 217 213 214 217 220 218 213 213 216 218 219 219 217 217 219
304 296 269 284 299 275 300 316 278 244 252 267 261 245 255 257 249 245 232 109 141 174 163 172 188 197 206 211 218 224 226 224 223 224 222 217 213 212 213 216 216 216 214 215 216 212 208 210 211 208 210 216 220 219 217 216 216 216 219 220 218 218 219
320 300 280 287 283 275 323 340 317 261 258 292 283 261 276 329 35 60 80 100 155 169 165 180 198 207 207 207 215 219 218 219 219 221 226 227 225 221 219 222 222 221 220 219 220 219 213 209 210 209 210 215 220 221 221 221 217 215 219 221 220 219 220
332 303 291 301 307 301 303 333 342 342 357 355 337 299 342 40 63 76 95 127 154 168 172 173 191 218 216 208 212 217 216 218 219 225 232 233 233 232 230 231 229 226 224 220 220 220 214 211 214 213 209 213 219 223 224 223 220 218 221 224 224 221 220
283 289 290 300 316 313 304 322 347 1 356 357 5 19 37 52 71 90 110 125 139 158 173 169 176 201 209 205 208 215 218 221 227 235 236 232 235 236 237 239 235 232 227 221 220 221 215 213 218 216 211 212 218 223 225 223 222 222 223 225 228 225 223
278 282 293 304 310 309 306 316 344 1 345 340 0 16 27 37 55 92 122 112 105 123 109 109 149 157 174 199 212 216 226 232 233 234 231 230 234 233 232 234 231 230 229 221 218 220 218 214 217 217 214 214 216 219 222 220 220 223 223 225 228 228 226
299 285 279 288 290 299 309 311 332 355 356 345 349 1 17 34 49 81 122 105 95 100 83 306 169 151 157 193 210 222 239 236 225 229 233 232 233 231 226 229 231 227 226 220 214 213 214 215 217 219 218 218 219 219 220 217 217 221 222 224 229 230 227
310 309 288 275 275 291 304 308 332 354 357 357 6 358 338 2 48 78 111 111 103 98 62 332 200 176 184 200 207 223 239 231 224 232 238 236 235 233 222 219 225 222 221 223 216 212 212 214 216 219 218 217 219 222 224 222 221 223 223 226 230 230 230
302 302 300 284 262 280 297 304 329 356 356 351 9 17 355 341 19 56 94 116 118 115 56 24 109 168 201 206 205 220 232 234 238 241 240 237 240 243 231 217 218 217 217 226 226 221 221 221 221 221 219 216 216 218 219 220 221 224 227 230 231 232 236
302 290 289 283 256 247 275 301 297 339 9 2 358 12 17 15 7 10 55 75 93 146 186 28 74 123 227 227 203 200 210 225 247 250 238 232 236 244 240 227 222 220 215 221 228 225 226 230 230 227 225 226 225 222 219 218 220 225 229 234 237 237 238
300 303 298 288 261 218 155 19 287 288 359 12 11 4 2 2 2 3 20 31 35 150 233 264 329 308 285 260 208 183 191 211 234 244 231 223 227 242 246 237 227 218 204 209 220 221 221 226 229 229 230 232 232 230 225 224 227 230 232 236 239 238 234
288 307 311 306 314 148 119 68 10 296 318 345 0 18 17 12 14 22 23 18 11 341 298 283 283 288 288 275 226 191 195 210 226 241 230 221 221 238 254 252 237 220 202 205 216 222 221 223 228 231 232 234 235 233 229 229 231 234 235 238 239 236 233
279 299 315 322 21 98 107 87 60 46 30 359 349 17 34 25 21 30 24 6 354 347 341 333 310 291 285 275 255 218 197 200 209 216 213 207 206 224 250 249 237 239 239 222 220 227 226 222 225 229 232 236 240 242 242 241 241 240 243 248 249 247 246
277 280 311 343 74 111 113 109 89 69 53 20 357 356 10 11 8 21 22 2 342 335 347 356 337 302 283 266 266 270 234 197 208 221 220 212 211 227 240 227 224 238 247 231 220 226 230 226 224 227 232 235 239 243 245 248 250 251 255 257 256 253 251
294 269 276 14 100 113 105 118 96 55 27 13 354 340 358 27 2 332 339 340 325 326 344 359 346 308 283 270 275 288 296 277 252 262 270 256 239 244 243 226 221 223 219 214 212 216 224 230 229 230 234 239 245 247 246 247 252 258 261 260 254 250 248
304 285 229 98 145 143 114 128 116 58 25 27 352 319 10 79 343 300 304 318 318 325 339 342 326 296 285 288 288 288 299 316 293 273 272 269 268 278 280 273 255 227 214 212 211 211 218 224 225 223 222 225 235 242 242 241 242 247 253 256 254 250 249
276 261 221 149 130 140 143 168 187 223 247 232 239 262 88 85 265 273 298 328 324 327 350 354 334 298 279 283 289 290 301 320 301 283 281 284 287 292 293 293 292 277 253 239 234 232 235 234 230 225 224 225 229 234 237 237 237 240 243 247 250 252 252
280 276 206 118 107 121 130 196 216 228 249 259 252 97 64 27 272 274 304 329 330 333 349 359 352 330 299 282 281 286 293 301 301 299 304 304 295 291 293 295 297 297 291 285 285 286 283 276 264 250 244 245 246 246 246 244 242 243 242 242 246 248 247
322 343 87 103 112 130 129 277 246 245 263 327 71 91 80 4 309 315 325 327 333 335 331 332 340 342 331 313 293 280 279 289 299 305 314 313 300 294 296 296 295 296 296 293 291 288 288 289 287 279 271 268 265 261 258 254 249 247 245 242 242 243 244
17 40 98 109 88 49 39 312 298 288 252 100 89 89 99 327 337 347 345 343 346 342 332 330 333 333 330 329 320 296 278 276 283 294 309 315 310 308 308 299 289 285 286 291 293 287 281 280 283 285 283 279 276 274 270 264 258 254 252 247 244 243 243
45 72 105 108 62 357 332 314 328 12 91 109 103 106 213 320 1 2 353 357 2 356 351 355 0 356 342 340 352 341 312 286 285 290 299 307 308 309 308 300 288 273 267 274 286 290 286 281 279 279 276 272 271 271 270 267 264 262 261 255 249 247 244
67 84 99 103 108 306 326 342 13 61 92 116 136 182 243 331 17 9 354 1 7 5 5 8 21 36 35 42 42 23 4 357 350 331 310 316 327 333 332 326 320 308 290 280 279 281 283 282 278 274 268 264 262 260 258 258 259 263 265 261 254 249 246
54 75 98 106 129 308 332 9 93 107 117 159 219 260 295 331 0 353 346 355 3 6 7 0 1 29 49 59 64 46 21 24 25 23 19 8 359 358 355 347 336 325 316 307 296 287 283 281 278 273 266 261 257 255 254 253 252 254 257 259 258 254 249
96 98 100 98 287 308 329 351 62 233 253 274 291 299 312 329 342 342 340 345 351 1 7 356 351 9 28 46 73 90 90 67 47 38 31 22 14 6 358 353 348 334 318 308 301 295 291 287 284 280 276 271 266 263 263 261 258 254 252 251 252 251 247
160 144 146 173 219 245 277 295 297 286 288 307 319 317 317 325 335 341 341 338 344 359 9 354 336 339 345 359 33 60 260 336 22 25 16 12 13 9 0 355 349 334 319 312 308 306 304 300 295 291 287 283 279 276 274 272 270 267 262 257 252 248 244
200 179 179 204 240 264 279 282 287 295 301 309 313 310 308 310 318 325 324 326 336 353 1 352 334 316 313 311 299 274 268 278 286 284 297 328 341 338 336 335 326 315 310 311 312 313 313 308 300 294 290 288 287 285 284 284 283 281 279 272 264 257 249
216 214 211 223 245 259 265 273 287 301 307 309 307 304 304 311 319 316 308 312 318 325 331 332 324 307 296 297 290 276 270 277 280 279 283 287 287 283 266 256 263 270 275 283 289 292 294 293 290 288 286 288 290 291 292 293 292 291 289 285 276 265 258
231 229 227 235 247 251 256 267 278 286 294 300 300 302 308 315 318 317 313 308 303 303 308 306 302 303 302 301 298 288 283 282 277 277 281 281 281 280 269 261 261 260 264 274 280 280 279 279 282 287 288 291 295 298 299 298 296 295 294 288 279 268 259
239 247 255 260 258 257 264 276 281 281 284 286 284 291 303 310 311 311 310 302 292 291 293 292 295 297 291 287 289 288 288 286 277 274 276 277 279 281 275 270 269 267 267 274 281 286 287 282 280 284 288 292 295 297 298 297 296 300 300 290 280 272 260
249 260 270 270 262 258 265 275 278 277 280 281 281 283 289 294 297 298 298 294 290 286 283 282 284 289 287 284 282 278 277 278 276 273 273 272 273 274 273 270 267 266 269 273 274 277 279 279 280 282 283 288 292 293 291 288 286 288 288 282 278 275 265
265 268 269 267 263 263 267 272 272 274 279 280 282 285 286 287 290 292 290 287 285 286 284 277 275 279 281 280 281 281 279 274 269 266 267 267 268 271 273 273 270 267 267 267 267 270 271 271 273 275 277 281 285 288 288 286 281 277 275 272 270 269 266
Height
3143 3144 3145 3146 3148 3148 3148 3149 3151 3152 3153 3154 3153 3153 3150 3150 3150 3148 3148 3150 3152 3152 3153 3154 3154 3155 3156 3157 3158 3159 3161 3164 3166 3167 3169 3172 3175 3178 3180 3183 3185 3187 3189 3191 3193 3195 3197 3198 3199 3200 3202 3205 3207 3209 3210 3212 3213 3214 3216 3218 3219 3221 3222
3143 3144 3144 3145 3147 3147 3147 3148 3150 3151 3152 3152 3153 3153 3151 3150 3150 3147 3145 3147 3150 3152 3152 3153 3153 3154 3154 3155 3157 3158 3160 3161 3162 3164 3166 3170 3173 3176 3178 3181 3183 3185 3187 3189 3191 3193 3195 3197 3198 3198 3200 3203 3205 3208 3209 3211 3212 3213 3215 3216 3218 3219 3221
3142 3143 3143 3144 3146 3146 3146 3147 3148 3150 3151 3151 3151 3152 3151 3151 3150 3148 3148 3149 3150 3152 3152 3152 3153 3152 3153 3154 3155 3157 3158 3159 3160 3162 3164 3167 3171 3174 3176 3178 3181 3183 3185 3186 3188 3190 3193 3195 3196 3197 3199 3201 3204 3206 3208 3209 3210 3212 3213 3215 3216 3218 3220
3140 3141 3142 3143 3145 3145 3145 3147 3147 3148 3149 3149 3149 3149 3149 3150 3149 3150 3154 3154 3153 3154 3153 3152 3153 3153 3153 3153 3154 3156 3157 3159 3160 3161 3163 3165 3168 3171 3173 3176 3179 3181 3183 3185 3187 3189 3191 3193 3195 3195 3197 3199 3201 3204 3206 3207 3209 3210 3211 3213 3215 3216 3218
3140 3141 3141 3142 3144 3145 3146 3147 3147 3146 3146 3147 3147 3146 3146 3147 3147 3147 3152 3156 3155 3155 3154 3153 3154 3155 3155 3155 3156 3157 3158 3159 3161 3162 3163 3165 3167 3169 3172 3175 3177 3180 3182 3184 3185 3187 3189 3192 3193 3194 3195 3196 3199 3202 3204 3205 3207 3208 3210 3211 3213 3215 3217
3141 3141 3141 3141 3142 3143 3145 3147 3146 3144 3144 3146 3147 3145 3145 3145 3144 3143 3146 3152 3154 3153 3153 3153 3154 3155 3156 3157 3158 3159 3159 3160 3161 3162 3164 3165 3167 3169 3171 3174 3176 3178 3180 3181 3182 3184 3187 3190 3191 3192 3193 3194 3196 3199 3202 3204 3205 3207 3208 3209 3211 3213 3215
3143 3143 3141 3140 3141 3142 3141 3143 3145 3144 3144 3145 3145 3144 3144 3143 3142 3141 3142 3147 3150 3151 3151 3153 3154 3155 3156 3156 3157 3159 3160 3160 3161 3162 3163 3164 3165 3167 3170 3172 3173 3175 3176 3177 3178 3181 3184 3187 3189 3191 3191 3192 3195 3197 3200 3202 3203 3205 3206 3208 3210 3211 3213
3143 3142 3141 3139 3140 3141 3141 3141 3142 3143 3144 3143 3142 3142 3142 3142 3142 3140 3141 3146 3150 3151 3151 3153 3154 3155 3156 3155 3156 3157 3158 3159 3160 3160 3160 3161 3163 3166 3168 3170 3171 3173 3175 3176 3177 3181 3183 3185 3186 3188 3190 3191 3193 3195 3198 3200 3202 3203 3204 3206 3208 3210 3211
3144 3143 3142 3140 3140 3141 3142 3142 3142 3143 3143 3142 3141 3141 3141 3142 3142 3140 3141 3148 3151 3150 3151 3153 3154 3155 3155 3155 3155 3156 3157 3157 3157 3158 3159 3161 3163 3165 3167 3168 3169 3171 3173 3175 3177 3180 3181 3182 3184 3186 3188 3190 3192 3193 3195 3197 3200 3201 3202 3204 3206 3208 3209
3147 3147 3146 3144 3143 3143 3142 3144 3144 3143 3142 3141 3141 3139 3139 3142 3143 3140 3142 3147 3149 3150 3151 3152 3153 3153 3154 3154 3155 3156 3156 3156 3157 3159 3161 3161 3162 3163 3165 3166 3168 3170 3171 3173 3175 3177 3178 3180 3182 3184 3186 3188 3190 3191 3193 3195 3197 3199 3201 3202 3204 3206 3208
3148 3148 3147 3146 3146 3145 3144 3144 3145 3143 3141 3141 3141 3140 3141 3143 3143 3142 3143 3146 3148 3150 3152 3152 3152 3152 3153 3154 3155 3155 3155 3156 3157 3160 3161 3160 3160 3162 3164 3165 3167 3167 3167 3169 3171 3174 3176 3178 3181 3183 3184 3186 3187 3189 3190 3192 3195 3197 3199 3200 3202 3205 3207
3147 3146 3146 3145 3146 3146 3146 3145 3145 3143 3142 3142 3143 3143 3143 3143 3142 3144 3147 3147 3148 3150 3152 3152 3152 3152 3153 3154 3154 3154 3154 3155 3157 3158 3158 3157 3158 3160 3162 3162 3163 3164 3164 3165 3167 3170 3173 3175 3177 3179 3181 3182 3184 3186 3188 3190 3192 3195 3197 3199 3200 3203 3206
3145 3145 3146 3145 3145 3146 3146 3146 3145 3145 3144 3144 3144 3144 3144 3144 3145 3148 3150 3149 3148 3150 3151 3151 3152 3153 3153 3153 3152 3153 3153 3154 3155 3155 3155 3155 3156 3158 3160 3161 3160 3161 3162 3164 3165 3167 3169 3171 3175 3177 3179 3180 3182 3184 3185 3187 3189 3191 3195 3197 3199 3201 3204
3144 3144 3145 3145 3145 3145 3146 3146 3146 3146 3146 3145 3145 3144 3145 3146 3148 3149 3150 3150 3150 3150 3150 3151 3152 3153 3153 3153 3153 3153 3153 3153 3154 3154 3155 3155 3155 3157 3159 3158 3158 3159 3160 3161 3163 3164 3165 3167 3170 3174 3177 3178 3181 3183 3184 3185 3187 3190 3193 3195 3197 3200 3202
3144 3144 3144 3144 3144 3145 3146 3147 3147 3147 3147 3146 3146 3146 3145 3146 3148 3149 3151 3152 3152 3152 3152 3152 3152 3153 3153 3154 3154 3154 3154 3153 3154 3155 3155 3155 3156 3157 3157 3156 3156 3157 3159 3160 3162 3164 3166 3167 3170 3173 3176 3177 3178 3179 3180 3182 3185 3188 3191 3193 3195 3198 3200
3144 3144 3143 3143 3144 3145 3146 3147 3148 3149 3149 3148 3147 3148 3147 3147 3148 3149 3150 3152 3153 3153 3153 3153 3153 3154 3154 3155 3155 3155 3155 3154 3153 3154 3154 3155 3156 3157 3157 3157 3156 3156 3159 3161 3162 3164 3167 3170 3172 3175 3177 3177 3177 3177 3177 3179 3183 3186 3189 3191 3193 3195 3197
3144 3144 3143 3143 3143 3145 3147 3148 3149 3150 3151 3150 3149 3149 3150 3150 3149 3149 3150 3151 3152 3153 3153 3153 3153 3154 3155 3155 3156 3156 3155 3153 3151 3151 3151 3153 3155 3156 3157 3157 3155 3156 3160 3161 3161 3162 3164 3166 3169 3172 3174 3175 3175 3176 3179 3180 3182 3184 3187 3189 3190 3192 3194
3145 3144 3143 3143 3143 3145 3147 3149 3150 3150 3151 3151 3150 3150 3151 3150 3150 3150 3150 3151 3151 3151 3152 3152 3152 3153 3155 3155 3155 3154 3154 3152 3150 3150 3150 3152 3155 3155 3155 3156 3155 3155 3158 3160 3161 3162 3164 3166 3167 3169 3172 3173 3173 3174 3176 3177 3179 3181 3184 3186 3187 3189 3191
3145 3144 3144 3144 3145 3146 3147 3149 3150 3151 3151 3151 3151 3151 3150 3150 3151 3150 3150 3150 3150 3150 3150 3151 3151 3152 3153 3154 3153 3151 3152 3152 3151 3150 3149 3151 3154 3155 3154 3155 3156 3156 3158 3161 3163 3164 3165 3167 3167 3168 3170 3172 3172 3172 3172 3173 3174 3177 3181 3185 3186 3188 3189
3145 3145 3144 3146 3147 3147 3147 3148 3149 3150 3150 3151 3150 3149 3149 3149 3149 3149 3149 3149 3148 3148 3150 3151 3151 3151 3152 3153 3152 3150 3151 3153 3153 3152 3151 3153 3155 3157 3156 3156 3156 3157 3159 3162 3164 3163 3163 3164 3164 3165 3167 3168 3168 3169 3170 3170 3172 3175 3180 3183 3184 3185 3186
3145 3145 3145 3146 3147 3148 3147 3147 3148 3149 3150 3151 3149 3148 3149 3149 3148 3148 3149 3149 3148 3149 3150 3151 3151 3151 3152 3153 3152 3150 3150 3152 3154 3154 3155 3155 3157 3158 3158 3158 3158 3158 3158 3159 3161 3161 3161 3161 3162 3162 3163 3164 3166 3167 3168 3169 3171 3174 3177 3179 3180 3181 3183
3145 3145 3145 3145 3147 3148 3148 3148 3148 3149 3150 3150 3149 3149 3149 3149 3148 3148 3149 3149 3149 3150 3151 3152 3152 3152 3152 3152 3152 3150 3149 3150 3152 3154 3154 3155 3157 3158 3158 3159 3159 3159 3159 3158 3157 3158 3158 3158 3159 3160 3161 3163 3164 3165 3165 3167 3169 3172 3174 3175 3176 3178 3179
3145 3145 3144 3145 3146 3147 3148 3149 3149 3148 3148 3149 3149 3149 3150 3149 3149 3149 3150 3150 3150 3151 3152 3153 3153 3152 3151 3151 3152 3151 3150 3151 3152 3152 3152 3154 3156 3158 3158 3158 3158 3159 3159 3158 3158 3158 3158 3158 3158 3159 3160 3161 3162 3162 3163 3164 3166 3169 3172 3173 3174 3175 3176
3144 3144 3144 3144 3146 3147 3147 3147 3147 3147 3147 3148 3148 3149 3150 3150 3149 3149 3150 3151 3151 3151 3152 3153 3153 3152 3151 3151 3151 3152 3152 3152 3152 3152 3151 3153 3155 3156 3157 3157 3156 3157 3157 3157 3158 3159 3159 3158 3158 3159 3160 3161 3162 3163 3163 3164 3166 3168 3170 3172 3172 3173 3173
3143 3143 3143 3145 3146 3146 3146 3146 3146 3146 3147 3147 3148 3149 3150 3149 3149 3150 3150 3150 3151 3151 3151 3152 3152 3152 3151 3151 3151 3152 3152 3153 3153 3152 3152 3152 3153 3154 3155 3155 3155 3155 3154 3155 3156 3157 3158 3158 3158 3158 3159 3160 3161 3161 3162 3163 3164 3166 3168 3169 3170 3171 3172
3143 3143 3143 3145 3146 3146 3146 3146 3145 3145 3146 3147 3148 3149 3149 3149 3149 3150 3150 3150 3150 3150 3150 3150 3150 3150 3150 3150 3151 3151 3152 3152 3152 3152 3152 3151 3152 3152 3153 3154 3154 3154 3153 3152 3153 3154 3156 3157 3157 3157 3157 3158 3159 3159 3160 3161 3162 3163 3165 3166 3167 3168 3169
3143 3143 3143 3145 3146 3146 3145 3145 3145 3145 3145 3147 3148 3148 3148 3149 3149 3149 3149 3149 3149 3149 3149 3149 3149 3149 3149 3149 3150 3150 3150 3151 3151 3151 3151 3150 3151 3151 3151 3152 3153 3153 3153 3153 3152 3152 3153 3154 3155 3155 3155 3156 3157 3158 3159 3159 3160 3161 3162 3163 3165 3165 3166
3143 3143 3144 3145 3146 3145 3145 3145 3144 3145 3146 3147 3147 3147 3147 3148 3149 3149 3149 3149 3149 3149 3148 3148 3148 3148 3148 3149 3149 3149 3149 3150 3150 3150 3150 3150 3150 3150 3150 3151 3151 3152 3153 3153 3153 3152 3152 3153 3153 3154 3154 3155 3156 3157 3158 3158 3159 3159 3160 3161 3162 3163 3164
3143 3143 3143 3145 3145 3145 3145 3144 3144 3145 3145 3146 3146 3146 3146 3148 3148 3148 3148 3148 3148 3148 3148 3148 3148 3148 3148 3148 3148 3148 3149 3149 3149 3149 3149 3149 3149 3149 3149 3149 3150 3151 3152 3152 3152 3152 3152 3152 3152 3153 3154 3155 3156 3157 3157 3158 3158 3158 3159 3159 3160 3161 3163
3143 3143 3144 3144 3144 3144 3144 3144 3144 3144 3144 3145 3145 3145 3145 3146 3147 3147 3147 3147 3147 3147 3147 3148 3148 3148 3147 3147 3147 3147 3148 3148 3148 3148 3148 3148 3149 3149 3148 3148 3149 3150 3150 3151 3151 3151 3151 3152 3152 3152 3153 3154 3155 3156 3157 3157 3157 3158 3158 3158 3158 3159 3160
3143 3143 3144 3144 3144 3144 3144 3144 3144 3144 3144 3144 3144 3144 3145 3145 3146 3146 3146 3146 3146 3147 3147 3147 3147 3147 3147 3147 3147 3146 3147 3147 3147 3147 3147 3148 3148 3148 3148 3148 3149 3149 3150 3150 3150 3149 3150 3150 3151 3152 3153 3154 3155 3156 3156 3157 3157 3157 3157 3157 3157 3157 3158
3142 3143 3143 3143 3142 3143 3144 3144 3143 3143 3144 3144 3143 3143 3143 3144 3145 3145 3145 3145 3145 3146 3146 3146 3146 3147 3147 3147 3146 3146 3146 3146 3146 3147 3147 3147 3148 3148 3148 3148 3148 3149 3149 3149 3149 3149 3149 3149 3150 3151 3152 3154 3155 3155 3156 3156 3156 3156 3156 3156 3156 3157 3157
3141 3142 3142 3142 3142 3142 3143 3143 3143 3143 3143 3143 3143 3142 3142 3143 3144 3144 3144 3144 3144 3145 3145 3146 3146 3146 3146 3146 3146 3146 3146 3146 3146 3146 3146 3147 3147 3148 3148 3148 3148 3148 3148 3148 3148 3149 3149 3149 3150 3151 3151 3152 3153 3154 3154 3155 3155 3155 3155 3155 3155 3155 3155
3140 3141 3141 3141 3141 3141 3142 3142 3142 3142 3142 3142 3142 3142 3141 3142 3142 3143 3143 3143 3143 3143 3144 3144 3144 3145 3145 3145 3145 3146 3146 3146 3146 3146 3146 3146 3147 3147 3148 3148 3148 3148 3148 3148 3149 3149 3150 3150 3150 3151 3151 3151 3152 3152 3153 3153 3154 3154 3154 3154 3154 3154 3154
3139 3140 3140 3140 3140 3140 3140 3141 3141 3141 3141 3141 3141 3141 3141 3141 3141 3141 3142 3142 3142 3142 3142 3142 3143 3143 3143 3144 3144 3144 3145 3145 3145 3145 3146 3146 3147 3147 3147 3148 3148 3148 3148 3148 3149 3150 3150 3150 3151 3151 3151 3151 3151 3151 3151 3152 3152 3153 3153 3153 3153 3153 3153
3139 3139 3139 3139 3139 3139 3139 3139 3139 3139 3139 3139 3139 3140 3140 3140 3140 3140 3140 3140 3141 3141 3142 3142 3141 3141 3142 3142 3142 3143 3143 3143 3144 3144 3145 3145 3146 3146 3146 3147 3147 3147 3147 3148 3148 3149 3149 3150 3150 3150 3150 3150 3150 3150 3150 3150 3150 3151 3151 3151 3152 3152 3152
3137 3138 3137 3137 3137 3137 3137 3137 3137 3138 3137 3137 3137 3138 3138 3138 3138 3138 3139 3139 3139 3139 3140 3140 3140 3140 3140 3140 3140 3141 3141 3141 3142 3142 3143 3143 3144 3144 3145 3145 3146 3146 3146 3147 3147 3147 3148 3148 3148 3149 3149 3149 3149 3149 3149 3149 3149 3149 3149 3149 3150 3150 3150